Tracking 27086 objects as of 22-Mar-2023
HD Live streaming from Space Station
objects crossing your sky now

ITALSAT 1

Track ITALSAT 1 now!
ITALSAT 1 is classified as:


NORAD ID: 21055
Int'l Code: 1991-003A
Perigee: 35,816.6 km
Apogee: 35,949.5 km
Inclination: 14.8 °
Period: 1,440.7 minutes
Semi major axis: 42254 km
RCS: 3.4358 m2 (large)
Launch date: January 15, 1991
Source: Italy (IT)
Launch site: FRENCH GUIANA (FRGUI)
Your satellite tracking list
Your tracking list is empty




NASA's NSSDC Master Catalog

Two Line Element Set (TLE):
1 21055U 91003A   23079.84424479 -.00000165  00000-0  00000-0 0  9992
2 21055  14.8221   0.5749 0015733  32.8491 175.6981  0.99953991105247
Source of the keplerian elements: AFSPC